FW6664 Weather Reports


Display with metric or nautical units.
time (UTC)temp
F
wind
direction
speed
MPH
gust
MPH
rain 1hr
in
rain 24hr
in
rain mn
in
humidity
%
barometer
mb
20260510182844 73 294 5.0 0.0 0.00 0.00 0.00 33 1017.0
20260510182529 73 289 5.0 8.0 0.00 0.00 0.00 33 1017.0
20260510182340 73 276 6.0 0.0 0.00 0.00 0.00 33 1017.0
20260510182056 73 286 4.0 8.0 0.00 0.00 0.00 33 1017.0
20260510182000 73 285 5.0 8.0 0.00 0.00 0.00 33 1017.0
20260510181835 74 285 8.0 0.0 0.00 0.00 0.00 33 1017.0
20260510181551 73 284 4.0 5.0 0.00 0.00 0.00 33 1017.0
20260510181329 74 265 6.0 0.0 0.00 0.00 0.00 33 1017.0
20260510181047 73 279 2.0 6.0 0.00 0.00 0.00 33 1017.0
20260510180829 74 260 3.0 0.0 0.00 0.00 0.00 33 1017.0
20260510180539 73 289 2.0 6.0 0.00 0.00 0.00 33 1017.0
20260510180406 73 296 6.0 0.0 0.00 0.00 0.00 33 1017.0
20260510180011 72 285 1.0 6.0 0.00 0.00 0.00 33 1017.0
20260510175837 72 284 5.0 0.0 0.00 0.00 0.00 33 1017.0
20260510175601 71 298 4.0 6.0 0.00 0.00 0.00 33 1017.0
20260510175501 71 289 4.0 6.0 0.00 0.00 0.00 33 1017.0
20260510175331 72 293 9.0 0.0 0.00 0.00 0.00 33 1017.0
20260510175055 71 294 2.0 3.0 0.00 0.00 0.00 33 1017.0
20260510174850 72 286 2.0 0.0 0.00 0.00 0.00 33 1017.0
20260510174528 71 265 1.0 6.0 0.00 0.00 0.00 33 1017.0
20260510174346 72 258 4.0 0.0 0.00 0.00 0.00 33 1017.0
20260510174024 71 255 3.0 6.0 0.00 0.00 0.00 33 1017.0
20260510173845 71 301 5.0 0.0 0.00 0.00 0.00 33 1017.0
20260510173518 70 234 2.0 4.0 0.00 0.00 0.00 33 1017.0
20260510173340 71 234 2.0 0.0 0.00 0.00 0.00 33 1017.0
20260510173014 69 284 3.0 4.0 0.00 0.00 0.00 33 1017.0
20260510172841 70 283 3.0 0.0 0.00 0.00 0.00 33 1017.0
20260510172506 69 297 1.0 2.0 0.00 0.00 0.00 33 1017.0
20260510172337 69 296 5.0 0.0 0.00 0.00 0.00 33 1017.0
20260510172059 68 235 2.0 4.0 0.00 0.00 0.00 33 1017.0
20260510172005 68 234 2.0 4.0 0.00 0.00 0.00 33 1017.0
20260510171834 68 217 4.0 0.0 0.00 0.00 0.00 33 1017.0
20260510171553 67 223 2.0 4.0 0.00 0.00 0.00 33 1017.0
20260510171351 68 298 6.0 0.0 0.00 0.00 0.00 33 1017.0
20260510171032 67 241 2.0 4.0 0.00 0.00 0.00 33 1017.0
20260510170850 67 261 4.0 0.0 0.00 0.00 0.00 33 1017.0
20260510170557 66 247 3.0 5.0 0.00 0.00 0.00 33 1017.0
20260510170500 66 241 3.0 5.0 0.00 0.00 0.00 33 1017.0
20260510170344 67 291 1.0 0.0 0.00 0.00 0.00 33 1017.0
20260510170109 66 209 2.0 5.0 0.00 0.00 0.00 33 1017.0
20260510165841 66 220 2.0 0.0 0.00 0.00 0.00 33 1017.0
20260510165547 66 240 1.0 4.0 0.00 0.00 0.00 33 1017.0
20260510165400 66 240 2.0 0.0 0.00 0.00 0.00 33 1017.0
20260510165018 66 216 2.0 4.0 0.00 0.00 0.00 33 1017.0
20260510164831 66 253 0.0 0.0 0.00 0.00 0.00 33 1017.0
20260510164547 65 250 2.0 4.0 0.00 0.00 0.00 33 1017.0
20260510164326 65 291 2.0 0.0 0.00 0.00 0.00 33 1017.0
20260510164041 65 292 3.0 4.0 0.00 0.00 0.00 33 1017.0
20260510163906 65 284 3.0 0.0 0.00 0.00 0.00 33 1017.0
20260510163515 65 221 3.0 3.0 0.00 0.00 0.00 33 1017.0
20260510163338 65 266 4.0 0.0 0.00 0.00 0.00 33 1017.0
20260510163004 65 239 1.0 3.0 0.00 0.00 0.00 33 1017.0
20260510162831 65 168 2.0 0.0 0.00 0.00 0.00 33 1017.0
20260510162533 65 233 2.0 3.0 0.00 0.00 0.00 33 1017.0
20260510162327 65 324 3.0 0.0 0.00 0.00 0.00 33 1017.0
20260510162031 64 329 2.0 3.0 0.00 0.00 0.00 33 1017.0
20260510161846 65 338 2.0 0.0 0.00 0.00 0.00 33 1017.0
20260510161524 64 344 1.0 2.0 0.00 0.00 0.00 33 1017.0
20260510161344 65 344 2.0 0.0 0.00 0.00 0.00 33 1017.0
20260510161020 64 344 0.0 1.0 0.00 0.00 0.00 33 1017.0
20260510160901 64 344 0.0 0.0 0.00 0.00 0.00 33 1017.0
20260510160550 64 344 0.0 1.0 0.00 0.00 0.00 33 1017.0
20260510160337 64 344 0.0 0.0 0.00 0.00 0.00 33 1017.0
20260510160057 63 344 0.0 0.0 0.00 0.00 0.00 33 1017.0
20260510155834 64 344 0.0 0.0 0.00 0.00 0.00 33 1017.0
20260510155518 63 344 0.0 1.0 0.00 0.00 0.00 33 1017.0
20260510155351 63 344 0.0 0.0 0.00 0.00 0.00 33 1017.0
20260510155049 62 344 0.0 2.0 0.00 0.00 0.00 33 1017.0
20260510154827 62 344 0.0 0.0 0.00 0.00 0.00 33 1017.0
20260510154525 62 344 0.0 2.0 0.00 0.00 0.00 33 1017.0
20260510154346 62 344 0.0 0.0 0.00 0.00 0.00 33 1017.0
20260510154025 61 344 1.0 2.0 0.00 0.00 0.00 33 1017.0
20260510153843 62 344 0.0 0.0 0.00 0.00 0.00 33 1017.0
20260510153518 61 344 0.0 0.0 0.00 0.00 0.00 33 1017.0
20260510153339 61 344 0.0 0.0 0.00 0.00 0.00 33 1017.0
20260510153014 61 344 0.0 0.0 0.00 0.00 0.00 33 1017.0
20260510152835 61 344 0.0 0.0 0.00 0.00 0.00 33 1017.0
20260510152600 60 344 0.0 2.0 0.00 0.00 0.00 33 1017.0
20260510152503 60 344 0.0 2.0 0.00 0.00 0.00 33 1017.0
20260510152333 61 344 0.0 0.0 0.00 0.00 0.00 33 1017.0
20260510152054 60 344 0.0 2.0 0.00 0.00 0.00 33 1017.0
20260510151827 60 344 0.0 0.0 0.00 0.00 0.00 33 1017.0
20260510151548 60 344 2.0 3.0 0.00 0.00 0.00 33 1017.0
20260510151328 61 343 2.0 0.0 0.00 0.00 0.00 33 1017.0
20260510151042 60 338 2.0 3.0 0.00 0.00 0.00 33 1017.0
20260510150846 61 335 2.0 0.0 0.00 0.00 0.00 33 1017.0
20260510150536 60 334 0.0 1.0 0.00 0.00 0.00 33 1017.0
20260510150342 61 333 0.0 0.0 0.00 0.00 0.00 33 1017.0
20260510150030 60 333 0.0 0.0 0.00 0.00 0.00 33 1017.0
20260510145838 60 332 0.0 0.0 0.00 0.00 0.00 33 1017.0
20260510145521 59 332 0.0 0.0 0.00 0.00 0.00 33 1017.0
20260510145332 60 332 0.0 0.0 0.00 0.00 0.00 33 1017.0
20260510145016 59 332 0.0 0.0 0.00 0.00 0.00 33 1017.0
20260510144828 59 332 1.0 0.0 0.00 0.00 0.00 33 1017.0
20260510144512 59 332 0.0 1.0 0.00 0.00 0.00 33 1017.0
20260510144345 59 332 0.0 0.0 0.00 0.00 0.00 33 1017.0
20260510144005 58 332 0.0 1.0 0.00 0.00 0.00 33 1017.0
20260510143841 58 331 0.0 0.0 0.00 0.00 0.00 33 1017.0
20260510143555 58 323 0.0 0.0 0.00 0.00 0.00 33 1017.0
20260510143335 58 323 0.0 0.0 0.00 0.00 0.00 33 1017.0
20260510143046 57 323 0.0 0.0 0.00 0.00 0.00 33 1017.0
20260510142854 58 323 0.0 0.0 0.00 0.00 0.00 33 1017.0
20260510142615 57 323 0.0 0.0 0.00 0.00 0.00 33 1017.0
20260510090502 57 233 0.0 0.0 0.00 0.00 0.00 33 1017.0
20260510090332 58 233 0.0 0.0 0.00 0.00 0.00 33 1017.0
20260510090055 57 233 0.0 0.0 0.00 0.00 0.00 33 1017.0
20260510052504 57 233 0.0 3.0 0.00 0.00 0.00 33 1017.0
20260510052329 58 233 1.0 0.0 0.00 0.00 0.00 33 1017.0
20260510052055 57 233 2.0 3.0 0.00 0.00 0.00 33 1017.0
20260510051903 58 233 3.0 0.0 0.00 0.00 0.00 33 1017.0
20260510051529 57 233 0.0 2.0 0.00 0.00 0.00 33 1017.0
20260510051344 58 233 1.0 0.0 0.00 0.00 0.00 33 1017.0
20260510051021 57 233 0.0 2.0 0.00 0.00 0.00 33 1017.0
20260510050837 57 233 3.0 0.0 0.00 0.00 0.00 33 1017.0
20260510050512 57 233 1.0 2.0 0.00 0.00 0.00 33 1017.0
20260510050352 57 233 3.0 0.0 0.00 0.00 0.00 33 1017.0
20260510050042 57 233 2.0 2.0 0.00 0.00 0.00 33 1017.0
20260510045827 57 233 2.0 0.0 0.00 0.00 0.00 33 1017.0
20260510045537 57 233 1.0 3.0 0.00 0.00 0.00 33 1017.0
20260510045324 57 233 2.0 0.0 0.00 0.00 0.00 33 1017.0
20260510045033 57 233 1.0 3.0 0.00 0.00 0.00 33 1017.0
20260510044843 57 233 3.0 0.0 0.00 0.00 0.00 33 1017.0
20260510044526 57 233 1.0 3.0 0.00 0.00 0.00 33 1017.0
20260510044338 57 233 2.0 0.0 0.00 0.00 0.00 33 1017.0
20260510044018 57 233 1.0 3.0 0.00 0.00 0.00 33 1017.0
20260510043833 57 233 0.0 0.0 0.00 0.00 0.00 33 1017.0
20260510043513 57 233 2.0 3.0 0.00 0.00 0.00 33 1017.0
20260510043349 57 233 3.0 0.0 0.00 0.00 0.00 33 1017.0
20260510043050 57 233 2.0 3.0 0.00 0.00 0.00 33 1017.0
20260510042842 57 233 3.0 0.0 0.00 0.00 0.00 33 1017.0
20260510042535 57 233 1.0 3.0 0.00 0.00 0.00 33 1017.0
20260510042401 58 233 1.0 0.0 0.00 0.00 0.00 33 1017.0
20260510042012 57 233 0.0 4.0 0.00 0.00 0.00 33 1017.0
20260510041837 58 233 1.0 0.0 0.00 0.00 0.00 33 1017.0
20260510041558 57 233 2.0 4.0 0.00 0.00 0.00 33 1017.0
20260510041501 57 233 2.0 4.0 0.00 0.00 0.00 33 1017.0
20260510041351 58 233 4.0 0.0 0.00 0.00 0.00 33 1017.0
20260510041031 57 233 2.0 4.0 0.00 0.00 0.00 33 1017.0
20260510040825 58 233 2.0 0.0 0.00 0.00 0.00 33 1017.0
20260510040525 57 233 1.0 3.0 0.00 0.00 0.00 33 1017.0
20260510040343 58 233 0.0 0.0 0.00 0.00 0.00 33 1017.0
20260510040033 58 233 2.0 2.0 0.00 0.00 0.00 33 1017.0
20260510035839 58 233 2.0 0.0 0.00 0.00 0.00 33 1017.0
20260510035511 58 233 0.0 2.0 0.00 0.00 0.00 33 1017.0
20260510035333 58 233 3.0 0.0 0.00 0.00 0.00 33 1017.0
20260510035040 58 233 1.0 2.0 0.00 0.00 0.00 33 1017.0
20260510034829 58 233 2.0 0.0 0.00 0.00 0.00 33 1017.0
20260510034534 58 233 0.0 3.0 0.00 0.00 0.00 33 1017.0
20260510034346 59 233 3.0 0.0 0.00 0.00 0.00 33 1017.0
20260510034008 58 233 2.0 3.0 0.00 0.00 0.00 33 1017.0
20260510033842 59 233 3.0 0.0 0.00 0.00 0.00 33 1017.0
20260510033559 58 233 2.0 3.0 0.00 0.00 0.00 33 1017.0
20260510033336 59 233 1.0 0.0 0.00 0.00 0.00 33 1017.0
20260510033058 58 233 0.0 3.0 0.00 0.00 0.00 33 1017.0
20260510032828 59 233 3.0 0.0 0.00 0.00 0.00 33 1017.0
20260510032517 58 233 1.0 3.0 0.00 0.00 0.00 33 1017.0
20260510032402 59 233 1.0 0.0 0.00 0.00 0.00 33 1017.0
20260510032046 59 233 2.0 3.0 0.00 0.00 0.00 33 1017.0
20260510031838 59 233 2.0 0.0 0.00 0.00 0.00 33 1017.0
20260510031546 59 233 3.0 3.0 0.00 0.00 0.00 33 1017.0
20260510031332 59 233 1.0 0.0 0.00 0.00 0.00 33 1017.0
20260510031011 59 233 1.0 2.0 0.00 0.00 0.00 33 1017.0
20260510030827 60 233 1.0 0.0 0.00 0.00 0.00 33 1017.0
20260510030505 59 233 1.0 2.0 0.00 0.00 0.00 33 1017.0
20260510030325 60 233 2.0 0.0 0.00 0.00 0.00 33 1017.0
20260510025824 60 233 3.0 0.0 0.00 0.00 0.00 33 1017.0
20260510025552 60 233 1.0 2.0 0.00 0.00 0.00 33 1017.0
20260510025323 60 233 1.0 0.0 0.00 0.00 0.00 33 1017.0
20260510025049 60 233 0.0 2.0 0.00 0.00 0.00 33 1017.0
20260510024841 60 233 0.0 0.0 0.00 0.00 0.00 33 1017.0
20260510024547 60 233 1.0 3.0 0.00 0.00 0.00 33 1017.0
20260510024400 61 233 1.0 0.0 0.00 0.00 0.00 33 1017.0
20260510024024 60 233 2.0 3.0 0.00 0.00 0.00 33 1017.0
20260510023856 61 231 1.0 0.0 0.00 0.00 0.00 33 1017.0
20260510023547 61 231 0.0 3.0 0.00 0.00 0.00 33 1017.0
20260510023354 61 231 3.0 0.0 0.00 0.00 0.00 33 1017.0
20260510023020 61 231 3.0 4.0 0.00 0.00 0.00 33 1017.0
20260510022828 62 231 2.0 0.0 0.00 0.00 0.00 33 1017.0
20260510022551 62 231 2.0 4.0 0.00 0.00 0.00 33 1017.0
20260510022324 62 231 1.0 0.0 0.00 0.00 0.00 33 1017.0
20260510022045 62 231 1.0 4.0 0.00 0.00 0.00 33 1017.0
20260510021841 63 231 2.0 0.0 0.00 0.00 0.00 33 1017.0
20260510021531 63 236 3.0 4.0 0.00 0.00 0.00 33 1017.0
20260510021336 63 282 4.0 0.0 0.00 0.00 0.00 33 1017.0
20260510021011 63 261 2.0 3.0 0.00 0.00 0.00 33 1017.0
20260510020830 64 261 4.0 0.0 0.00 0.00 0.00 33 1017.0
20260510020537 63 261 2.0 4.0 0.00 0.00 0.00 33 1017.0
20260510020325 64 227 6.0 0.0 0.00 0.00 0.00 33 1017.0
20260510020032 63 247 1.0 4.0 0.00 0.00 0.00 33 1017.0
20260510015841 64 240 2.0 0.0 0.00 0.00 0.00 33 1017.0
20260510015524 64 231 2.0 4.0 0.00 0.00 0.00 33 1017.0
20260510015336 64 142 4.0 0.0 0.00 0.00 0.00 33 1017.0
20260510015016 64 219 2.0 6.0 0.00 0.00 0.00 33 1017.0
20260510014829 65 285 2.0 0.0 0.00 0.00 0.00 33 1017.0
20260510014508 64 297 4.0 6.0 0.00 0.00 0.00 33 1017.0
20260510014325 65 274 3.0 0.0 0.00 0.00 0.00 33 1017.0
20260510014101 64 232 5.0 6.0 0.00 0.00 0.00 33 1017.0
20260510014003 64 232 4.0 6.0 0.00 0.00 0.00 33 1017.0
20260510013842 65 281 6.0 0.0 0.00 0.00 0.00 33 1017.0
20260510013556 65 255 4.0 6.0 0.00 0.00 0.00 33 1017.0
20260510013402 65 222 6.0 0.0 0.00 0.00 0.00 33 1017.0
20260510013027 65 244 3.0 5.0 0.00 0.00 0.00 33 1017.0
20260510012835 66 282 7.0 0.0 0.00 0.00 0.00 33 1017.0
20260510012524 66 236 3.0 6.0 0.00 0.00 0.00 33 1017.0
20260510012331 67 303 4.0 0.0 0.00 0.00 0.00 33 1017.0
20260510012052 66 229 3.0 6.0 0.00 0.00 0.00 33 1017.0
20260510011825 67 277 3.0 0.0 0.00 0.00 0.00 33 1017.0
20260510011530 67 227 3.0 6.0 0.00 0.00 0.00 33 1017.0
20260510011402 67 294 4.0 0.0 0.00 0.00 0.00 33 1017.0
20260510011052 67 249 4.0 6.0 0.00 0.00 0.00 33 1017.0
20260510010836 68 227 4.0 0.0 0.00 0.00 0.00 33 1017.0
20260510010542 67 272 4.0 7.0 0.00 0.00 0.00 33 1017.0
20260510010329 68 291 6.0 0.0 0.00 0.00 0.00 33 1017.0
20260510010037 67 272 4.0 7.0 0.00 0.00 0.00 33 1017.0
20260510005826 68 221 5.0 0.0 0.00 0.00 0.00 33 1017.0
20260510005510 68 243 2.0 6.0 0.00 0.00 0.00 33 1017.0
20260510005401 69 267 4.0 0.0 0.00 0.00 0.00 33 1017.0
20260510005038 69 234 4.0 6.0 0.00 0.00 0.00 33 1017.0
20260510004837 70 252 6.0 0.0 0.00 0.00 0.00 33 1017.0
20260510004512 69 230 2.0 6.0 0.00 0.00 0.00 33 1017.0
20260510004332 70 295 4.0 0.0 0.00 0.00 0.00 33 1017.0
20260510004100 70 263 5.0 8.0 0.00 0.00 0.00 33 1017.0
20260510004003 70 285 4.0 8.0 0.00 0.00 0.00 33 1017.0
20260510003828 71 233 6.0 0.0 0.00 0.00 0.00 33 1017.0
20260510003556 70 289 5.0 8.0 0.00 0.00 0.00 33 1017.0
20260510003405 70 253 3.0 0.0 0.00 0.00 0.00 33 1017.0
20260510003026 69 266 2.0 5.0 0.00 0.00 0.00 33 1017.0
20260510002839 70 228 3.0 0.0 0.00 0.00 0.00 33 1017.0
20260510002519 69 196 3.0 5.0 0.00 0.00 0.00 33 1017.0
20260510002334 70 219 5.0 0.0 0.00 0.00 0.00 33 1017.0
20260510002015 69 253 2.0 6.0 0.00 0.00 0.00 33 1017.0
20260510001852 70 226 4.0 0.0 0.00 0.00 0.00 33 1017.0
20260510001547 70 224 4.0 6.0 0.00 0.00 0.00 33 1017.0
20260510001328 71 142 5.0 0.0 0.00 0.00 0.00 33 1017.0
20260510001039 71 245 2.0 6.0 0.00 0.00 0.00 33 1017.0
20260510000844 71 248 2.0 0.0 0.00 0.00 0.00 33 1017.0
20260510000531 70 258 4.0 6.0 0.00 0.00 0.00 33 1017.0
20260510000341 71 190 3.0 0.0 0.00 0.00 0.00 33 1017.0
20260510000034 70 228 2.0 6.0 0.00 0.00 0.00 33 1017.0
20260509235836 70 259 2.0 0.0 0.00 0.00 0.00 33 1017.0
20260509235602 70 209 5.0 6.0 0.00 0.00 0.00 33 1017.0
20260509235335 71 250 4.0 0.0 0.00 0.00 0.00 33 1017.0
20260509235049 70 168 3.0 5.0 0.00 0.00 0.00 33 1017.0
20260509234832 71 231 4.0 0.0 0.00 0.00 0.00 33 1017.0
20260509234546 70 207 3.0 5.0 0.00 0.00 0.00 33 1017.0
20260509234328 71 198 2.0 0.0 0.00 0.00 0.00 33 1017.0
20260509234023 71 218 4.0 5.0 0.00 0.00 0.00 33 1017.0
20260509233904 72 208 7.0 0.0 0.00 0.00 0.00 33 1017.0
20260509233548 71 162 4.0 6.0 0.00 0.00 0.00 33 1017.0
20260509233342 72 242 3.0 0.0 0.00 0.00 0.00 33 1017.0
20260509233022 71 207 2.0 6.0 0.00 0.00 0.00 33 1017.0
20260509232838 71 206 5.0 0.0 0.00 0.00 0.00 33 1017.0
20260509232517 71 233 3.0 6.0 0.00 0.00 0.00 33 1017.0
20260509232334 71 196 2.0 0.0 0.00 0.00 0.00 33 1017.0
20260509232046 71 256 4.0 6.0 0.00 0.00 0.00 33 1017.0
20260509231831 71 195 1.0 0.0 0.00 0.00 0.00 33 1017.0
20260509231543 70 210 2.0 4.0 0.00 0.00 0.00 33 1017.0
20260509231347 70 216 5.0 0.0 0.00 0.00 0.00 33 1017.0
20260509231016 70 167 3.0 6.0 0.00 0.00 0.00 33 1017.0
20260509230841 70 183 7.0 0.0 0.00 0.00 0.00 33 1017.0
20260509230505 71 139 3.0 6.0 0.00 0.00 0.00 33 1017.0
20260509230338 72 180 4.0 0.0 0.00 0.00 0.00 33 1017.0
20260509230057 71 265 2.0 6.0 0.00 0.00 0.00 33 1017.0
20260509225833 71 184 4.0 0.0 0.00 0.00 0.00 33 1017.0
20260509225549 70 261 4.0 9.0 0.00 0.00 0.00 33 1017.0
20260509225350 70 199 5.0 0.0 0.00 0.00 0.00 33 1017.0
20260509225024 71 219 6.0 9.0 0.00 0.00 0.00 33 1017.0
20260509224827 72 235 3.0 0.0 0.00 0.00 0.00 33 1017.0
20260509224518 71 305 2.0 8.0 0.00 0.00 0.00 33 1017.0
20260509224324 72 244 5.0 0.0 0.00 0.00 0.00 33 1017.0
20260509224012 71 211 3.0 7.0 0.00 0.00 0.00 33 1017.0
20260509223900 72 187 3.0 0.0 0.00 0.00 0.00 33 1017.0
20260509223539 72 193 2.0 6.0 0.00 0.00 0.00 33 1017.0
20260509223354 72 262 4.0 0.0 0.00 0.00 0.00 33 1017.0
20260509223013 71 292 2.0 6.0 0.00 0.00 0.00 33 1017.0
20260509222829 72 223 4.0 0.0 0.00 0.00 0.00 33 1017.0
20260509222505 70 257 4.0 7.0 0.00 0.00 0.00 33 1017.0
20260509222325 71 272 3.0 0.0 0.00 0.00 0.00 33 1017.0
20260509222056 71 214 4.0 7.0 0.00 0.00 0.00 33 1017.0
20260509221841 71 304 2.0 0.0 0.00 0.00 0.00 33 1017.0
20260509221553 70 277 4.0 8.0 0.00 0.00 0.00 33 1017.0
20260509221400 70 229 12.0 0.0 0.00 0.00 0.00 33 1017.0
20260509221022 69 237 5.0 8.0 0.00 0.00 0.00 33 1017.0
20260509220853 70 218 7.0 0.0 0.00 0.00 0.00 33 1017.0
20260509220552 70 196 4.0 9.0 0.00 0.00 0.00 33 1017.0
20260509220328 70 196 3.0 0.0 0.00 0.00 0.00 33 1017.0
20260509220027 70 144 6.0 9.0 0.00 0.00 0.00 33 1017.0
20260509215826 71 269 5.0 0.0 0.00 0.00 0.00 33 1017.0
20260509215556 70 237 3.0 9.0 0.00 0.00 0.00 33 1017.0
20260509215340 71 169 6.0 0.0 0.00 0.00 0.00 33 1017.0
20260509215046 71 261 3.0 9.0 0.00 0.00 0.00 33 1017.0
20260509214833 72 200 4.0 0.0 0.00 0.00 0.00 33 1017.0
20260509214554 71 294 2.0 7.0 0.00 0.00 0.00 33 1017.0
20260509214329 71 147 2.0 0.0 0.00 0.00 0.00 33 1017.0
20260509214035 71 236 5.0 7.0 0.00 0.00 0.00 33 1017.0
20260509213825 71 284 9.0 0.0 0.00 0.00 0.00 33 1017.0
20260509213506 71 218 5.0 6.0 0.00 0.00 0.00 33 1017.0
20260509213401 72 213 6.0 0.0 0.00 0.00 0.00 33 1017.0
20260509213035 71 274 3.0 6.0 0.00 0.00 0.00 33 1017.0
20260509212831 71 241 4.0 0.0 0.00 0.00 0.00 33 1017.0
20260509212526 71 286 5.0 6.0 0.00 0.00 0.00 33 1017.0
20260509212328 71 215 10.0 0.0 0.00 0.00 0.00 33 1017.0
20260509212024 71 269 6.0 9.0 0.00 0.00 0.00 33 1017.0
20260509211826 72 247 3.0 0.0 0.00 0.00 0.00 33 1017.0
20260509211515 71 220 5.0 9.0 0.00 0.00 0.00 33 1017.0
20260509211340 72 260 8.0 0.0 0.00 0.00 0.00 33 1017.0
20260509211007 71 241 4.0 7.0 0.00 0.00 0.00 33 1017.0
20260509210837 72 266 4.0 0.0 0.00 0.00 0.00 33 1017.0
20260509210558 71 276 3.0 7.0 0.00 0.00 0.00 33 1017.0
20260509210330 72 243 8.0 0.0 0.00 0.00 0.00 33 1017.0
20260509210033 71 266 6.0 8.0 0.00 0.00 0.00 33 1017.0
20260509205827 72 223 7.0 0.0 0.00 0.00 0.00 33 1017.0
20260509205600 71 220 5.0 8.0 0.00 0.00 0.00 33 1017.0
20260509205502 71 212 4.0 8.0 0.00 0.00 0.00 33 1017.0
20260509205327 72 241 8.0 0.0 0.00 0.00 0.00 33 1017.0
20260509205053 72 285 6.0 8.0 0.00 0.00 0.00 33 1017.0
20260509204838 72 221 7.0 0.0 0.00 0.00 0.00 33 1017.0
20260509204523 71 252 3.0 12.0 0.00 0.00 0.00 33 1017.0
20260509204331 72 286 8.0 0.0 0.00 0.00 0.00 33 1017.0
20260509204054 71 248 7.0 12.0 0.00 0.00 0.00 33 1017.0
20260509203831 72 239 11.0 0.0 0.00 0.00 0.00 33 1017.0
20260509203549 71 268 4.0 7.0 0.00 0.00 0.00 33 1017.0
20260509203326 72 285 7.0 0.0 0.00 0.00 0.00 33 1017.0
20260509203022 71 260 4.0 9.0 0.00 0.00 0.00 33 1017.0
20260509202843 72 267 3.0 0.0 0.00 0.00 0.00 33 1017.0
20260509202513 71 264 6.0 9.0 0.00 0.00 0.00 33 1017.0
20260509202339 72 234 7.0 0.0 0.00 0.00 0.00 33 1017.0
20260509202007 72 285 3.0 7.0 0.00 0.00 0.00 33 1017.0
20260509201835 72 216 13.0 0.0 0.00 0.00 0.00 33 1017.0
20260509201559 72 295 4.0 8.0 0.00 0.00 0.00 33 1017.0
20260509201500 72 273 4.0 12.0 0.00 0.00 0.00 33 1017.0
20260509201331 72 248 6.0 0.0 0.00 0.00 0.00 33 1017.0
20260509201053 72 220 4.0 12.0 0.00 0.00 0.00 33 1017.0
20260509200830 72 251 3.0 0.0 0.00 0.00 0.00 33 1017.0
20260509200548 72 272 6.0 12.0 0.00 0.00 0.00 33 1017.0
20260509200327 73 236 5.0 0.0 0.00 0.00 0.00 33 1017.0
20260509200042 73 244 4.0 8.0 0.00 0.00 0.00 33 1017.0
20260509195843 73 282 8.0 0.0 0.00 0.00 0.00 33 1017.0
20260509195536 72 299 6.0 8.0 0.00 0.00 0.00 33 1017.0
20260509195337 73 264 5.0 0.0 0.00 0.00 0.00 33 1017.0
20260509195029 72 258 4.0 8.0 0.00 0.00 0.00 33 1017.0
20260509194834 73 195 7.0 0.0 0.00 0.00 0.00 33 1017.0
20260509194528 72 295 6.0 8.0 0.00 0.00 0.00 33 1017.0
20260509194330 73 284 5.0 0.0 0.00 0.00 0.00 33 1017.0
20260509194021 72 287 4.0 7.0 0.00 0.00 0.00 33 1017.0
20260509193845 73 237 4.0 0.0 0.00 0.00 0.00 33 1017.0
20260509193508 72 274 3.0 9.0 0.00 0.00 0.00 33 1017.0
20260509193340 73 211 8.0 0.0 0.00 0.00 0.00 33 1017.0
20260509193102 73 298 8.0 9.0 0.00 0.00 0.00 33 1017.0
20260509192831 73 248 4.0 0.0 0.00 0.00 0.00 33 1017.0
20260509192550 73 259 4.0 6.0 0.00 0.00 0.00 33 1017.0
20260509192328 73 279 6.0 0.0 0.00 0.00 0.00 33 1017.0
20260509192044 73 212 5.0 6.0 0.00 0.00 0.00 33 1017.0
20260509191845 73 267 7.0 0.0 0.00 0.00 0.00 33 1017.0
20260509191552 73 310 4.0 6.0 0.00 0.00 0.00 33 1017.0
20260509191400 73 262 6.0 0.0 0.00 0.00 0.00 33 1017.0
20260509191009 73 216 3.0 6.0 0.00 0.00 0.00 33 1017.0
20260509190835 74 278 5.0 0.0 0.00 0.00 0.00 33 1017.0
20260509190541 73 271 5.0 6.0 0.00 0.00 0.00 33 1017.0
20260509190331 74 228 4.0 0.0 0.00 0.00 0.00 33 1017.0
20260509190033 73 241 3.0 6.0 0.00 0.00 0.00 33 1017.0
20260509185829 74 219 2.0 0.0 0.00 0.00 0.00 33 1017.0
20260509185523 73 226 4.0 6.0 0.00 0.00 0.00 33 1017.0
20260509185325 74 219 7.0 0.0 0.00 0.00 0.00 33 1017.0
20260509185020 73 294 5.0 6.0 0.00 0.00 0.00 33 1017.0
20260509184825 74 285 2.0 0.0 0.00 0.00 0.00 33 1017.0
20260509184528 73 297 3.0 6.0 0.00 0.00 0.00 33 1017.0
20260509184338 73 309 4.0 0.0 0.00 0.00 0.00 33 1017.0
20260509184100 73 290 4.0 6.0 0.00 0.00 0.00 33 1017.0
20260509184008 73 287 3.0 6.0 0.00 0.00 0.00 33 1017.0
20260509183855 73 206 3.0 0.0 0.00 0.00 0.00 33 1017.0
20260509183534 73 205 4.0 6.0 0.00 0.00 0.00 33 1017.0
20260509183327 73 184 2.0 0.0 0.00 0.00 0.00 33 1017.0